Darstellungsparameter: Aktuell verwendete Einstellungen:
Skalierung der Graphiken ... ?
xyx+y,   Skalierungsfaktor:      Skalierung: Modus: x, Faktor: 1
Darstellungszeitraum ... ?
Vom - - bis: - -   Zeitraum: 03.04.2020 - 03.04.2020
Min/Max/Avg-Anzeige ... ?
Zeige MMA aktuell
Zeige MMA Monat
Zeige MMA alles
Zeige --A aktuell
Zeige --A Monat
Zeige --A alles
Keine MMA-Anzeige
MMA:
Minimum Maximum Average (ber die Originaldaten)
MMA-Basis: 03.04.2020 - 03.04.2020
Quicknavigation für Darstellung... ?
Tage:      1T, 2T, 3T, 5T -1T -2T -3T -5T +1T +2T +3T +5T
Wochen: 1W, 2W, 3W -1W -2W -3W +1W +2W +3W
Monate: 1M, 3M, 6M -1M -3M -6M +1M +3M +6M
Jahre:    1J, 3J, 5J, 10J -1J -3J -5J -10J +1J +3J +5J +10J
Nutze für die Darstellung ... ?
Originaldaten oder Mittelwerte auf ...
Stundenbasis Tagesbasis Wochenbasis
Monatsbasis Jahresbasis      Datenbasis: Original-Daten
Darstellen als:
Statistik (Auto) Statistik J:M      Darstellung:
Zur Graphik,    zurück zur Übersicht aller Sensoren.
 
Tabellarische Datenbersicht: ?
 
Sensor: Nr:Datum:Temp:Abs-Feuchte:Windchill:Wind:
Aussen-T/F 1 03-04-2020 00:00:00 4.2 C 5.03 g/m*3 4.2 C 1.6 km/h
2 03-04-2020 00:05:00 3.9 C 4.93 g/m*3 3.9 C 0 km/h
3 03-04-2020 00:10:00 3.7 C 4.92 g/m*3 3.7 C 0 km/h
4 03-04-2020 00:15:00 3.4 C 4.89 g/m*3 3.4 C 0 km/h
5 03-04-2020 00:20:00 3.3 C 4.85 g/m*3 3.3 C 1.6 km/h
6 03-04-2020 00:25:00 3.3 C 4.91 g/m*3 3.3 C 3.2 km/h
7 03-04-2020 00:30:00 3.3 C 4.97 g/m*3 3.3 C 1.6 km/h
8 03-04-2020 00:35:00 3.3 C 4.91 g/m*3 3.3 C 0 km/h
9 03-04-2020 00:40:00 3.3 C 4.91 g/m*3 3.3 C 3.2 km/h
10 03-04-2020 00:45:00 3.4 C 5.01 g/m*3 3.4 C 3.2 km/h
11 03-04-2020 00:50:00 3.4 C 4.95 g/m*3 3.4 C 1.6 km/h
12 03-04-2020 00:55:00 3.2 C 4.88 g/m*3 1.51 C 6.4 km/h
13 03-04-2020 01:00:00 3.2 C 4.88 g/m*3 3.2 C 1.6 km/h
14 03-04-2020 01:05:00 3.1 C 4.85 g/m*3 3.1 C 3.2 km/h
15 03-04-2020 01:10:00 2.9 C 4.84 g/m*3 2.9 C 3.2 km/h
16 03-04-2020 01:15:00 3 C 4.88 g/m*3 1.28 C 6.4 km/h
17 03-04-2020 01:20:00 2.9 C 4.84 g/m*3 2.9 C 1.6 km/h
18 03-04-2020 01:25:00 2.9 C 4.9 g/m*3 0.64 C 8.1 km/h
19 03-04-2020 01:30:00 3 C 4.93 g/m*3 0.76 C 8.1 km/h
20 03-04-2020 01:35:00 3.1 C 4.97 g/m*3 0.87 C 8.1 km/h
21 03-04-2020 01:40:00 3.2 C 4.94 g/m*3 0.58 C 9.7 km/h
22 03-04-2020 01:45:00 3.1 C 4.91 g/m*3 3.1 C 3.2 km/h
23 03-04-2020 01:50:00 3 C 4.88 g/m*3 0.76 C 8.1 km/h
24 03-04-2020 01:55:00 2.9 C 4.84 g/m*3 2.9 C 4.8 km/h
25 03-04-2020 02:00:00 2.9 C 4.9 g/m*3 2.9 C 1.6 km/h
Sensor: Nr:Datum:Temp:Abs-Feuchte:Windchill:Wind:
Aussen-T/F 26 03-04-2020 02:05:00 2.8 C 4.87 g/m*3 2.8 C 1.6 km/h
27 03-04-2020 02:10:00 2.8 C 4.87 g/m*3 2.8 C 1.6 km/h
28 03-04-2020 02:15:00 2.8 C 4.87 g/m*3 1.05 C 6.4 km/h
29 03-04-2020 02:20:00 2.9 C 4.96 g/m*3 2.9 C 4.8 km/h
30 03-04-2020 02:25:00 3.1 C 4.97 g/m*3 3.1 C 4.8 km/h
31 03-04-2020 02:30:00 3.2 C 5 g/m*3 3.2 C 4.8 km/h
32 03-04-2020 02:35:00 3.3 C 5.04 g/m*3 3.3 C 1.6 km/h
33 03-04-2020 02:40:00 3.4 C 5.01 g/m*3 3.4 C 3.2 km/h
34 03-04-2020 02:45:00 3.3 C 4.97 g/m*3 3.3 C 0 km/h
35 03-04-2020 02:50:00 3.3 C 4.97 g/m*3 3.3 C 1.6 km/h
36 03-04-2020 02:55:00 3.4 C 5.01 g/m*3 3.4 C 3.2 km/h
37 03-04-2020 03:00:00 3.4 C 5.07 g/m*3 3.4 C 0 km/h
38 03-04-2020 03:05:00 3.6 C 5.14 g/m*3 3.6 C 1.6 km/h
39 03-04-2020 03:10:00 3.7 C 5.17 g/m*3 3.7 C 1.6 km/h
40 03-04-2020 03:15:00 3.8 C 5.14 g/m*3 3.8 C 1.6 km/h
41 03-04-2020 03:20:00 3.9 C 5.18 g/m*3 3.9 C 0 km/h
42 03-04-2020 03:25:00 4.1 C 5.25 g/m*3 4.1 C 4.8 km/h
43 03-04-2020 03:30:00 4.2 C 5.28 g/m*3 4.2 C 1.6 km/h
44 03-04-2020 03:35:00 4.4 C 5.29 g/m*3 2.9 C 6.4 km/h
45 03-04-2020 03:40:00 4.7 C 5.26 g/m*3 2.76 C 8.1 km/h
46 03-04-2020 03:45:00 4.8 C 5.3 g/m*3 3.36 C 6.4 km/h
47 03-04-2020 03:50:00 4.9 C 5.33 g/m*3 3.48 C 6.4 km/h
48 03-04-2020 03:55:00 4.9 C 5.33 g/m*3 4.9 C 3.2 km/h
49 03-04-2020 04:00:00 4.9 C 5.33 g/m*3 4.9 C 4.8 km/h
50 03-04-2020 04:05:00 5.1 C 5.4 g/m*3 3.71 C 6.4 km/h
Sensor: Nr:Datum:Temp:Abs-Feuchte:Windchill:Wind:
Aussen-T/F 51 03-04-2020 04:10:00 5.3 C 5.41 g/m*3 5.3 C 3.2 km/h
52 03-04-2020 04:15:00 5.4 C 5.37 g/m*3 3.2 C 9.7 km/h
53 03-04-2020 04:20:00 5.4 C 5.3 g/m*3 3.58 C 8.1 km/h
54 03-04-2020 04:25:00 5.4 C 5.3 g/m*3 5.4 C 1.6 km/h
55 03-04-2020 04:30:00 5.4 C 5.3 g/m*3 5.4 C 1.6 km/h
56 03-04-2020 04:35:00 5.4 C 5.37 g/m*3 5.4 C 0 km/h
57 03-04-2020 04:40:00 5.4 C 5.44 g/m*3 5.4 C 0 km/h
58 03-04-2020 04:45:00 5.3 C 5.41 g/m*3 5.3 C 0 km/h
59 03-04-2020 04:50:00 5.2 C 5.37 g/m*3 5.2 C 0 km/h
60 03-04-2020 04:55:00 5.2 C 5.44 g/m*3 5.2 C 0 km/h
61 03-04-2020 05:00:00 5.1 C 5.4 g/m*3 5.1 C 0 km/h
62 03-04-2020 05:05:00 5.1 C 5.4 g/m*3 5.1 C 0 km/h
63 03-04-2020 05:10:00 5.1 C 5.4 g/m*3 5.1 C 1.6 km/h
64 03-04-2020 05:15:00 5.2 C 5.44 g/m*3 5.2 C 0 km/h
65 03-04-2020 05:20:00 5.2 C 5.44 g/m*3 5.2 C 3.2 km/h
66 03-04-2020 05:25:00 5.3 C 5.48 g/m*3 5.3 C 1.6 km/h
67 03-04-2020 05:30:00 5.3 C 5.48 g/m*3 5.3 C 0 km/h
68 03-04-2020 05:35:00 5.3 C 5.41 g/m*3 5.3 C 1.6 km/h
69 03-04-2020 05:40:00 5.4 C 5.44 g/m*3 4.06 C 6.4 km/h
70 03-04-2020 05:45:00 5.5 C 5.48 g/m*3 5.5 C 1.6 km/h
71 03-04-2020 05:50:00 5.6 C 5.51 g/m*3 4.29 C 6.4 km/h
72 03-04-2020 05:55:00 5.6 C 5.59 g/m*3 5.6 C 4.8 km/h
73 03-04-2020 06:00:00 5.7 C 5.55 g/m*3 4.4 C 6.4 km/h
74 03-04-2020 06:05:00 5.7 C 5.48 g/m*3 4.4 C 6.4 km/h
75 03-04-2020 06:10:00 5.8 C 5.59 g/m*3 5.8 C 4.8 km/h
Sensor: Nr:Datum:Temp:Abs-Feuchte:Windchill:Wind:
Aussen-T/F 76 03-04-2020 06:15:00 5.7 C 5.55 g/m*3 5.7 C 3.2 km/h
77 03-04-2020 06:20:00 5.7 C 5.55 g/m*3 5.7 C 3.2 km/h
78 03-04-2020 06:25:00 5.7 C 5.55 g/m*3 5.7 C 4.8 km/h
79 03-04-2020 06:30:00 5.7 C 5.55 g/m*3 5.7 C 3.2 km/h
80 03-04-2020 06:35:00 5.7 C 5.62 g/m*3 5.7 C 0 km/h
81 03-04-2020 06:40:00 5.6 C 5.59 g/m*3 5.6 C 3.2 km/h
82 03-04-2020 06:45:00 5.6 C 5.59 g/m*3 5.6 C 0 km/h
83 03-04-2020 06:50:00 5.6 C 5.59 g/m*3 4.29 C 6.4 km/h
84 03-04-2020 06:55:00 5.7 C 5.55 g/m*3 3.56 C 9.7 km/h
85 03-04-2020 07:00:00 5.8 C 5.59 g/m*3 4.05 C 8.1 km/h
86 03-04-2020 07:05:00 6 C 5.59 g/m*3 3.92 C 9.7 km/h
87 03-04-2020 07:10:00 6 C 5.59 g/m*3 4.28 C 8.1 km/h
88 03-04-2020 07:15:00 6.1 C 5.55 g/m*3 3.43 C 12.9 km/h
89 03-04-2020 07:20:00 6.1 C 5.55 g/m*3 3.72 C 11.3 km/h
90 03-04-2020 07:25:00 6.1 C 5.55 g/m*3 4.86 C 6.4 km/h
91 03-04-2020 07:30:00 6.1 C 5.63 g/m*3 4.4 C 8.1 km/h
92 03-04-2020 07:35:00 6.1 C 5.63 g/m*3 4.86 C 6.4 km/h
93 03-04-2020 07:40:00 6.1 C 5.63 g/m*3 4.86 C 6.4 km/h
94 03-04-2020 07:45:00 6.1 C 5.63 g/m*3 6.1 C 4.8 km/h
95 03-04-2020 07:50:00 6.1 C 5.7 g/m*3 6.1 C 4.8 km/h
96 03-04-2020 07:55:00 6.1 C 5.7 g/m*3 6.1 C 1.6 km/h
97 03-04-2020 08:00:00 6.1 C 5.7 g/m*3 4.4 C 8.1 km/h
98 03-04-2020 08:05:00 6.2 C 5.66 g/m*3 4.52 C 8.1 km/h
99 03-04-2020 08:10:00 6.2 C 5.66 g/m*3 4.15 C 9.7 km/h
100 03-04-2020 08:15:00 6.3 C 5.7 g/m*3 4.27 C 9.7 km/h
Sensor: Nr:Datum:Temp:Abs-Feuchte:Windchill:Wind:
Aussen-T/F 101 03-04-2020 08:20:00 6.3 C 5.7 g/m*3 3.96 C 11.3 km/h
102 03-04-2020 08:25:00 6.3 C 5.7 g/m*3 4.27 C 9.7 km/h
103 03-04-2020 08:30:00 6.4 C 5.74 g/m*3 4.75 C 8.1 km/h
104 03-04-2020 08:35:00 6.4 C 5.74 g/m*3 4.08 C 11.3 km/h
105 03-04-2020 08:40:00 6.4 C 5.74 g/m*3 3.8 C 12.9 km/h
106 03-04-2020 08:45:00 6.6 C 5.81 g/m*3 4.63 C 9.7 km/h
107 03-04-2020 08:50:00 6.7 C 5.85 g/m*3 4.75 C 9.7 km/h
108 03-04-2020 08:55:00 6.8 C 5.89 g/m*3 4.87 C 9.7 km/h
109 03-04-2020 09:00:00 7 C 5.97 g/m*3 5.46 C 8.1 km/h
110 03-04-2020 09:05:00 7.1 C 5.93 g/m*3 5.23 C 9.7 km/h
111 03-04-2020 09:10:00 7.2 C 5.97 g/m*3 5.35 C 9.7 km/h
112 03-04-2020 09:15:00 7.3 C 6 g/m*3 5.81 C 8.1 km/h
113 03-04-2020 09:20:00 7.4 C 6.04 g/m*3 6.37 C 6.4 km/h
114 03-04-2020 09:25:00 7.6 C 6.12 g/m*3 5.82 C 9.7 km/h
115 03-04-2020 09:30:00 7.7 C 6.16 g/m*3 6.28 C 8.1 km/h
116 03-04-2020 09:35:00 7.8 C 6.12 g/m*3 5.77 C 11.3 km/h
117 03-04-2020 09:40:00 7.8 C 6.12 g/m*3 6.83 C 6.4 km/h
118 03-04-2020 09:45:00 8 C 6.2 g/m*3 8 C 4.8 km/h
119 03-04-2020 09:50:00 8.1 C 6.24 g/m*3 7.17 C 6.4 km/h
120 03-04-2020 09:55:00 8.2 C 6.2 g/m*3 7.29 C 6.4 km/h
121 03-04-2020 10:00:00 8.3 C 6.32 g/m*3 6.99 C 8.1 km/h
122 03-04-2020 10:05:00 8.5 C 6.4 g/m*3 7.22 C 8.1 km/h
123 03-04-2020 10:10:00 8.7 C 6.4 g/m*3 7.87 C 6.4 km/h
124 03-04-2020 10:15:00 8.8 C 6.44 g/m*3 7.58 C 8.1 km/h
125 03-04-2020 10:20:00 8.9 C 6.48 g/m*3 7.69 C 8.1 km/h
Sensor: Nr:Datum:Temp:Abs-Feuchte:Windchill:Wind:
Aussen-T/F 126 03-04-2020 10:25:00 9.1 C 6.48 g/m*3 7.93 C 8.1 km/h
127 03-04-2020 10:30:00 9.2 C 6.52 g/m*3 7.73 C 9.7 km/h
128 03-04-2020 10:35:00 9.2 C 6.52 g/m*3 7.46 C 11.3 km/h
129 03-04-2020 10:40:00 9.3 C 6.56 g/m*3 8.16 C 8.1 km/h
130 03-04-2020 10:45:00 9.4 C 6.6 g/m*3 7.97 C 9.7 km/h
131 03-04-2020 10:50:00 9.6 C 6.6 g/m*3 7.94 C 11.3 km/h
132 03-04-2020 10:55:00 9.8 C 6.68 g/m*3 7.94 C 12.9 km/h
133 03-04-2020 11:00:00 9.9 C 6.72 g/m*3 8.56 C 9.7 km/h
134 03-04-2020 11:05:00 10.3 C 6.8 g/m*3 9.04 C 9.7 km/h
135 03-04-2020 11:10:00 10.6 C 6.73 g/m*3 9.4 C 9.7 km/h
136 03-04-2020 11:15:00 10.8 C 6.82 g/m*3 9.64 C 9.7 km/h
137 03-04-2020 11:20:00 10.9 C 6.76 g/m*3 9.51 C 11.3 km/h
138 03-04-2020 11:25:00 10.9 C 6.66 g/m*3 9.51 C 11.3 km/h
139 03-04-2020 11:30:00 10.8 C 6.52 g/m*3 10.29 C 6.4 km/h
140 03-04-2020 11:35:00 10.9 C 6.47 g/m*3 10.04 C 8.1 km/h
141 03-04-2020 11:40:00 11.2 C 6.49 g/m*3 11.2 C 14.5 km/h
142 03-04-2020 11:45:00 11.3 C 6.43 g/m*3 11.3 C 14.5 km/h
143 03-04-2020 11:50:00 11.3 C 6.43 g/m*3 11.3 C 12.9 km/h
144 03-04-2020 11:55:00 11.3 C 6.43 g/m*3 11.3 C 16.1 km/h
145 03-04-2020 12:00:00 11.2 C 6.39 g/m*3 11.2 C 19.3 km/h
146 03-04-2020 12:05:00 11.2 C 6.49 g/m*3 11.2 C 11.3 km/h
147 03-04-2020 12:10:00 11.2 C 6.39 g/m*3 11.2 C 9.7 km/h
148 03-04-2020 12:15:00 11.2 C 6.39 g/m*3 11.2 C 9.7 km/h
149 03-04-2020 12:20:00 11.3 C 6.43 g/m*3 11.3 C 9.7 km/h
150 03-04-2020 12:25:00 11.5 C 6.3 g/m*3 11.5 C 12.9 km/h
Sensor: Nr:Datum:Temp:Abs-Feuchte:Windchill:Wind:
Aussen-T/F 151 03-04-2020 12:30:00 11.7 C 6.38 g/m*3 11.7 C 8.1 km/h
152 03-04-2020 12:35:00 11.6 C 6.13 g/m*3 11.6 C 12.9 km/h
153 03-04-2020 12:40:00 11.5 C 6.09 g/m*3 11.5 C 12.9 km/h
154 03-04-2020 12:45:00 11.3 C 6.22 g/m*3 11.3 C 12.9 km/h
155 03-04-2020 12:50:00 11.3 C 6.12 g/m*3 11.3 C 11.3 km/h
156 03-04-2020 12:55:00 11.2 C 6.18 g/m*3 11.2 C 11.3 km/h
157 03-04-2020 13:00:00 11.2 C 6.28 g/m*3 11.2 C 9.7 km/h
158 03-04-2020 13:05:00 11.3 C 6.43 g/m*3 11.3 C 11.3 km/h
159 03-04-2020 13:10:00 11.4 C 6.36 g/m*3 11.4 C 9.7 km/h
160 03-04-2020 13:15:00 11.5 C 6.3 g/m*3 11.5 C 12.9 km/h
161 03-04-2020 13:20:00 11.6 C 6.13 g/m*3 11.6 C 11.3 km/h
162 03-04-2020 13:25:00 11.7 C 6.17 g/m*3 11.7 C 11.3 km/h
163 03-04-2020 13:30:00 11.7 C 5.96 g/m*3 11.7 C 12.9 km/h
164 03-04-2020 13:35:00 11.6 C 6.03 g/m*3 11.6 C 12.9 km/h
165 03-04-2020 13:40:00 11.6 C 6.03 g/m*3 11.6 C 16.1 km/h
166 03-04-2020 13:45:00 11.7 C 6.28 g/m*3 11.7 C 8.1 km/h
167 03-04-2020 13:50:00 11.8 C 6.31 g/m*3 11.8 C 9.7 km/h
168 03-04-2020 13:55:00 11.8 C 6.1 g/m*3 11.8 C 11.3 km/h
169 03-04-2020 14:00:00 11.8 C 5.89 g/m*3 11.8 C 11.3 km/h
170 03-04-2020 14:05:00 11.8 C 5.89 g/m*3 11.8 C 12.9 km/h
171 03-04-2020 14:10:00 11.7 C 5.86 g/m*3 11.7 C 11.3 km/h
172 03-04-2020 14:15:00 11.7 C 5.86 g/m*3 11.7 C 12.9 km/h
173 03-04-2020 14:20:00 11.6 C 5.82 g/m*3 11.6 C 12.9 km/h
174 03-04-2020 14:25:00 11.6 C 5.92 g/m*3 11.6 C 8.1 km/h
175 03-04-2020 14:30:00 11.7 C 6.38 g/m*3 11.7 C 6.4 km/h
Sensor: Nr:Datum:Temp:Abs-Feuchte:Windchill:Wind:
Aussen-T/F 176 03-04-2020 14:35:00 11.6 C 6.44 g/m*3 11.6 C 8.1 km/h
177 03-04-2020 14:40:00 11.6 C 6.24 g/m*3 11.6 C 12.9 km/h
178 03-04-2020 14:45:00 11.6 C 6.13 g/m*3 11.6 C 9.7 km/h
179 03-04-2020 14:50:00 11.6 C 5.92 g/m*3 11.6 C 8.1 km/h
180 03-04-2020 14:55:00 11.7 C 5.86 g/m*3 11.7 C 12.9 km/h
181 03-04-2020 15:00:00 11.7 C 5.75 g/m*3 11.7 C 11.3 km/h
182 03-04-2020 15:05:00 11.8 C 5.79 g/m*3 11.8 C 12.9 km/h
183 03-04-2020 15:10:00 11.8 C 5.79 g/m*3 11.8 C 14.5 km/h
184 03-04-2020 15:15:00 11.7 C 5.75 g/m*3 11.7 C 12.9 km/h
185 03-04-2020 15:20:00 11.7 C 5.65 g/m*3 11.7 C 11.3 km/h
186 03-04-2020 15:25:00 11.7 C 5.86 g/m*3 11.7 C 9.7 km/h
187 03-04-2020 15:30:00 11.7 C 6.07 g/m*3 11.7 C 9.7 km/h
188 03-04-2020 15:35:00 11.7 C 6.07 g/m*3 11.7 C 8.1 km/h
189 03-04-2020 15:40:00 11.7 C 6.07 g/m*3 11.7 C 8.1 km/h
190 03-04-2020 15:45:00 11.8 C 6 g/m*3 11.8 C 11.3 km/h
191 03-04-2020 15:50:00 11.8 C 6.1 g/m*3 11.8 C 11.3 km/h
192 03-04-2020 15:55:00 11.9 C 5.72 g/m*3 11.9 C 11.3 km/h
193 03-04-2020 16:00:00 12.1 C 5.79 g/m*3 12.1 C 11.3 km/h
194 03-04-2020 16:05:00 12.2 C 5.61 g/m*3 12.2 C 11.3 km/h
195 03-04-2020 16:10:00 12.2 C 5.5 g/m*3 12.2 C 9.7 km/h
196 03-04-2020 16:15:00 12.3 C 5.43 g/m*3 12.3 C 11.3 km/h
197 03-04-2020 16:20:00 12.3 C 5.43 g/m*3 12.3 C 12.9 km/h
198 03-04-2020 16:25:00 12.2 C 5.4 g/m*3 12.2 C 14.5 km/h
199 03-04-2020 16:30:00 12.2 C 5.5 g/m*3 12.2 C 14.5 km/h
200 03-04-2020 16:35:00 12.3 C 5.32 g/m*3 12.3 C 12.9 km/h
Sensor: Nr:Datum:Temp:Abs-Feuchte:Windchill:Wind:
Aussen-T/F 201 03-04-2020 16:40:00 12.3 C 5.43 g/m*3 12.3 C 11.3 km/h
202 03-04-2020 16:45:00 12.3 C 5.32 g/m*3 12.3 C 16.1 km/h
203 03-04-2020 16:50:00 12.3 C 5.32 g/m*3 12.3 C 9.7 km/h
204 03-04-2020 16:55:00 12.3 C 5.21 g/m*3 12.3 C 17.7 km/h
205 03-04-2020 17:00:00 12.1 C 5.15 g/m*3 12.1 C 16.1 km/h
206 03-04-2020 17:05:00 12.1 C 5.36 g/m*3 12.1 C 11.3 km/h
207 03-04-2020 17:10:00 12.1 C 5.36 g/m*3 12.1 C 11.3 km/h
208 03-04-2020 17:15:00 12.1 C 5.25 g/m*3 12.1 C 14.5 km/h
209 03-04-2020 17:20:00 12.1 C 5.25 g/m*3 12.1 C 14.5 km/h
210 03-04-2020 17:25:00 12.2 C 5.29 g/m*3 12.2 C 9.7 km/h
211 03-04-2020 17:30:00 12.2 C 5.4 g/m*3 12.2 C 9.7 km/h
212 03-04-2020 17:35:00 12.2 C 5.29 g/m*3 12.2 C 16.1 km/h
213 03-04-2020 17:40:00 12.3 C 5.21 g/m*3 12.3 C 9.7 km/h
214 03-04-2020 17:45:00 12.2 C 5.29 g/m*3 12.2 C 11.3 km/h
215 03-04-2020 17:50:00 12.1 C 5.36 g/m*3 12.1 C 14.5 km/h
216 03-04-2020 17:55:00 11.9 C 5.3 g/m*3 11.9 C 12.9 km/h
217 03-04-2020 18:00:00 11.8 C 5.26 g/m*3 11.8 C 14.5 km/h
218 03-04-2020 18:05:00 11.7 C 5.33 g/m*3 11.7 C 16.1 km/h
219 03-04-2020 18:10:00 11.7 C 5.33 g/m*3 11.7 C 8.1 km/h
220 03-04-2020 18:15:00 11.7 C 5.44 g/m*3 11.7 C 9.7 km/h
221 03-04-2020 18:20:00 11.7 C 5.44 g/m*3 11.7 C 12.9 km/h
222 03-04-2020 18:25:00 11.6 C 5.51 g/m*3 11.6 C 16.1 km/h
223 03-04-2020 18:30:00 11.5 C 5.37 g/m*3 11.5 C 9.7 km/h
224 03-04-2020 18:35:00 11.4 C 5.44 g/m*3 11.4 C 9.7 km/h
225 03-04-2020 18:40:00 11.4 C 5.34 g/m*3 11.4 C 8.1 km/h
Sensor: Nr:Datum:Temp:Abs-Feuchte:Windchill:Wind:
Aussen-T/F 226 03-04-2020 18:45:00 11.3 C 5.41 g/m*3 11.3 C 9.7 km/h
227 03-04-2020 18:50:00 11.2 C 5.47 g/m*3 11.2 C 12.9 km/h
228 03-04-2020 18:55:00 11.2 C 5.47 g/m*3 11.2 C 11.3 km/h
229 03-04-2020 19:00:00 11.2 C 5.57 g/m*3 11.2 C 9.7 km/h
230 03-04-2020 19:05:00 11.1 C 5.64 g/m*3 11.1 C 6.4 km/h
231 03-04-2020 19:10:00 11 C 5.61 g/m*3 9.88 C 9.7 km/h
232 03-04-2020 19:15:00 10.9 C 5.57 g/m*3 9.51 C 11.3 km/h
233 03-04-2020 19:20:00 10.8 C 5.63 g/m*3 9.38 C 11.3 km/h
234 03-04-2020 19:25:00 10.8 C 5.44 g/m*3 9.93 C 8.1 km/h
235 03-04-2020 19:30:00 10.7 C 5.4 g/m*3 9.52 C 9.7 km/h
236 03-04-2020 19:35:00 10.6 C 5.27 g/m*3 8.92 C 12.9 km/h
237 03-04-2020 19:40:00 10.6 C 5.37 g/m*3 9.4 C 9.7 km/h
238 03-04-2020 19:45:00 10.4 C 5.3 g/m*3 9.16 C 9.7 km/h
239 03-04-2020 19:50:00 10.4 C 5.3 g/m*3 9.16 C 9.7 km/h
240 03-04-2020 19:55:00 10.3 C 5.36 g/m*3 9.34 C 8.1 km/h
241 03-04-2020 20:00:00 10.3 C 5.36 g/m*3 9.04 C 9.7 km/h
242 03-04-2020 20:05:00 10.2 C 5.42 g/m*3 10.2 C 3.2 km/h
243 03-04-2020 20:10:00 10.1 C 5.39 g/m*3 9.1 C 8.1 km/h
244 03-04-2020 20:15:00 9.9 C 5.32 g/m*3 9.25 C 6.4 km/h
245 03-04-2020 20:20:00 9.9 C 5.32 g/m*3 9.9 C 4.8 km/h
246 03-04-2020 20:25:00 9.8 C 5.2 g/m*3 7.94 C 12.9 km/h
247 03-04-2020 20:30:00 9.8 C 5.1 g/m*3 7.94 C 12.9 km/h
248 03-04-2020 20:35:00 9.8 C 5.2 g/m*3 9.14 C 6.4 km/h
249 03-04-2020 20:40:00 9.8 C 5.2 g/m*3 9.8 C 4.8 km/h
250 03-04-2020 20:45:00 9.7 C 5.16 g/m*3 9.7 C 4.8 km/h
Sensor: Nr:Datum:Temp:Abs-Feuchte:Windchill:Wind:
Aussen-T/F 251 03-04-2020 20:50:00 9.7 C 4.98 g/m*3 9.7 C 3.2 km/h
252 03-04-2020 20:55:00 9.6 C 5.13 g/m*3 9.6 C 4.8 km/h
253 03-04-2020 21:00:00 9.6 C 5.04 g/m*3 8.91 C 6.4 km/h
254 03-04-2020 21:05:00 9.5 C 4.82 g/m*3 7.82 C 11.3 km/h
255 03-04-2020 21:10:00 9.5 C 4.82 g/m*3 8.4 C 8.1 km/h
256 03-04-2020 21:15:00 9.5 C 4.82 g/m*3 9.5 C 4.8 km/h
257 03-04-2020 21:20:00 9.4 C 4.88 g/m*3 8.68 C 6.4 km/h
258 03-04-2020 21:25:00 9.4 C 4.97 g/m*3 9.4 C 0 km/h
259 03-04-2020 21:30:00 9.2 C 5.09 g/m*3 9.2 C 1.6 km/h
260 03-04-2020 21:35:00 9.1 C 4.88 g/m*3 8.33 C 6.4 km/h
261 03-04-2020 21:40:00 9 C 4.94 g/m*3 9 C 3.2 km/h
262 03-04-2020 21:45:00 8.9 C 5.08 g/m*3 8.9 C 3.2 km/h
263 03-04-2020 21:50:00 8.8 C 5.05 g/m*3 8.8 C 3.2 km/h
264 03-04-2020 21:55:00 8.8 C 4.96 g/m*3 8.8 C 3.2 km/h
265 03-04-2020 22:00:00 8.7 C 5.02 g/m*3 8.7 C 4.8 km/h
266 03-04-2020 22:05:00 8.6 C 4.9 g/m*3 8.6 C 1.6 km/h
267 03-04-2020 22:10:00 8.6 C 5.07 g/m*3 8.6 C 3.2 km/h
268 03-04-2020 22:15:00 8.5 C 5.04 g/m*3 8.5 C 3.2 km/h
269 03-04-2020 22:20:00 8.4 C 5.09 g/m*3 8.4 C 4.8 km/h
270 03-04-2020 22:25:00 8.2 C 5.11 g/m*3 8.2 C 4.8 km/h
271 03-04-2020 22:30:00 7.9 C 5.01 g/m*3 7.9 C 3.2 km/h
272 03-04-2020 22:35:00 7.7 C 5.03 g/m*3 7.7 C 4.8 km/h
273 03-04-2020 22:40:00 7.5 C 5.04 g/m*3 7.5 C 3.2 km/h
274 03-04-2020 22:45:00 7.3 C 5.06 g/m*3 7.3 C 4.8 km/h
275 03-04-2020 22:50:00 7.1 C 4.99 g/m*3 7.1 C 4.8 km/h
Sensor: Nr:Datum:Temp:Abs-Feuchte:Windchill:Wind:
Aussen-T/F 276 03-04-2020 22:55:00 7.1 C 4.91 g/m*3 7.1 C 4.8 km/h
277 03-04-2020 23:00:00 7 C 4.88 g/m*3 7 C 4.8 km/h
278 03-04-2020 23:05:00 7 C 4.88 g/m*3 7 C 3.2 km/h
279 03-04-2020 23:10:00 7.2 C 4.87 g/m*3 7.2 C 4.8 km/h
280 03-04-2020 23:15:00 7.4 C 4.85 g/m*3 7.4 C 4.8 km/h
281 03-04-2020 23:20:00 7.6 C 4.99 g/m*3 7.6 C 0 km/h
282 03-04-2020 23:25:00 7.4 C 4.93 g/m*3 7.4 C 1.6 km/h
283 03-04-2020 23:30:00 7 C 4.88 g/m*3 7 C 0 km/h
284 03-04-2020 23:35:00 6.6 C 4.91 g/m*3 6.6 C 4.8 km/h
285 03-04-2020 23:40:00 6.4 C 4.84 g/m*3 6.4 C 1.6 km/h
286 03-04-2020 23:45:00 6.2 C 4.85 g/m*3 6.2 C 0 km/h
287 03-04-2020 23:50:00 6 C 4.86 g/m*3 6 C 3.2 km/h
288 03-04-2020 23:55:00 5.8 C 4.8 g/m*3 5.8 C 3.2 km/h

Legende:
   Min
   Max


Maximal/Minimal-Werte vom 03.04.2020 - 03.04.2020

Sensor Min Max Avg
Temp
(Aussen-T/F)
2.8 °C
03-04-2020  02:05:00
12.3 °C
03-04-2020  16:15:00
8.2 °C
Abs-Feuchte
(Aussen-T/F)
4.8 g/m*3
03-04-2020  23:55:00
6.82 g/m*3
03-04-2020  11:15:00
5.52 g/m*3
Windchill
(Aussen-T/F)
0.58 C
03-04-2020  01:40:00
12.3 C
03-04-2020  16:15:00
7.68 C

Die Daten stammen von einer Davis Vantage Pro 2 Wetter-Station und werden unter Linux mit der Software wview2wettercgi und aufbereitet. Alle Angaben erfolgen ohne Gewähr für ihre Vollständigkeit oder Richtigkeit.
Kontakt: Rainer Krienke krienke@uni-koblenz.de . Meine Webseiten an der Uni Koblenz oder privat.
Version: $Revision: 0.78 $